Home   Weather   Plovdiv   Past weeks

Flag for Bulgaria Past Weather in Plovdiv, Bulgaria — Yesterday and Last 2 Weeks

Now
48 °F

Partly sunny.


Feels Like: 47 °F
Forecast: 40 / 74 °F
Wind: 3 mph from South

Location: Plovdiv Airport

Current Time: Sep 27, 2016 at 8:19:45 AM

Latest Report: Sep 27, 2016 at 8:00 AM


Visibility: N/A

Pressure: 30.24 "Hg

Humidity: 100%

Dew Point: 48 °F

Location of PlovdivLocation

Past Weather in Plovdiv — Graph

°F

Plovdiv Temperature Yesterday

Maximum temperature yesterday: 70 °F (at 4:30 PM)
Minimum temperature yesterday: 50 °F (at 6:30 AM)
Average temperature yesterday: 60 °F

High & Low Weather Summary for the Past Weeks

 TemperatureHumidityPressure
High91 °F (Sep 17, 4:00 PM)100% (Sep 27, 2:30 AM)30.36 "Hg (Sep 27, 2:30 AM)
Low45 °F (Sep 24, 5:00 AM)22% (Sep 14, 5:00 PM)29.59 "Hg (Sep 19, 5:30 PM)
Average67 °F53%30.00 "Hg
* Reported Sep 12 7:00 AM — Sep 27 7:00 AM, Plovdiv, Weather by CustomWeather, © 2016

Note: Actual official high and low records may vary slightly from our data, if they occured in-between our weather recording intervals... More about our weather records

Advertising

Plovdiv Weather History for the Previous 24 Hours

Scroll right to see more
 ConditionsComfort  
Time TempWeatherWind HumidityBarometerVisibility
7:00 AM
Tue, Sep 27
48 °FCool.5 mph94%30.21 "HgN/A
6:30 AM48 °FPassing clouds.5 mph100%30.21 "HgN/A
6:00 AM50 °FPassing clouds.6 mph94%30.21 "HgN/A
5:30 AM50 °FMostly cloudy.3 mph100%30.21 "HgN/A
5:00 AM52 °FPassing clouds.No wind94%30.21 "HgN/A
4:30 AM52 °FPassing clouds.2 mph88%30.21 "HgN/A
4:00 AM54 °FPassing clouds.3 mph94%30.21 "HgN/A
3:30 AM55 °FOvercast.5 mph88%30.21 "HgN/A
3:00 AM54 °FOvercast.5 mph100%30.21 "HgN/A
2:30 AM54 °FOvercast.5 mph100%30.21 "HgN/A
2:00 AM54 °FPassing clouds.6 mph94%30.21 "HgN/A
1:30 AM55 °FCool.6 mph88%30.21 "HgN/A
1:00 AM55 °FSprinkles. Passing clouds.6 mph88%30.21 "HgN/A
12:30 AM57 °FPassing clouds.12 mph82%30.21 "HgN/A
12:00 AM57 °FSprinkles. Passing clouds.8 mph82%30.21 "HgN/A
11:30 PM
Mon, Sep 26
57 °FSprinkles. Mostly cloudy.5 mph88%30.21 "HgN/A
11:00 PM57 °FSprinkles. Mostly cloudy.8 mph82%30.21 "HgN/A
10:30 PM57 °FSprinkles. Overcast.5 mph82%30.21 "HgN/A
10:00 PM57 °FLight rain. Mostly cloudy.13 mph88%30.18 "HgN/A
9:30 PM57 °FRain. Overcast.7 mph94%30.18 "HgN/A
9:00 PM57 °FLots of rain. Overcast.9 mph82%30.18 "Hg6 mi
8:30 PM61 °FRain showers. Mostly cloudy.7 mph72%30.15 "HgN/A
8:00 PM63 °FLight rain. Overcast.7 mph59%30.12 "HgN/A
7:30 PM66 °FPassing clouds.7 mph43%30.12 "HgN/A
7:00 PM66 °FMostly cloudy.5 mph43%30.12 "HgN/A
6:30 PM66 °FOvercast.6 mph43%30.12 "HgN/A
6:00 PM68 °FOvercast.3 mph43%30.12 "HgN/A
5:30 PM68 °FScattered clouds.6 mph40%30.09 "HgN/A
5:00 PM68 °FPartly sunny.6 mph40%30.09 "HgN/A
4:30 PM70 °FMild.6 mph40%30.09 "HgN/A
4:00 PM66 °FMild.6 mph46%30.09 "HgN/A
3:30 PM68 °FPartly sunny.7 mph46%30.09 "HgN/A
3:00 PM68 °FScattered clouds.3 mph43%30.09 "HgN/A
2:30 PM68 °FScattered clouds.5 mph46%30.12 "HgN/A
2:00 PM68 °FPassing clouds.5 mph46%30.12 "HgN/A
1:30 PM66 °FPassing clouds.5 mph49%30.12 "HgN/A
1:00 PM64 °FMild.5 mph52%30.12 "HgN/A
12:30 PM63 °FPassing clouds.2 mph56%30.12 "HgN/A
12:00 PM61 °FOvercast.3 mph59%30.12 "HgN/A
11:30 AM59 °FPartly sunny.2 mph63%30.12 "HgN/A
11:00 AM59 °FMostly cloudy.2 mph68%30.12 "HgN/A
10:30 AM57 °FPartly sunny.3 mph72%30.12 "HgN/A
10:00 AM57 °FMostly cloudy.3 mph72%30.12 "HgN/A
9:30 AM57 °FPartly sunny.5 mph72%30.09 "HgN/A
9:00 AM55 °FPartly sunny.2 mph72%30.09 "HgN/A
8:30 AM52 °FCool.6 mph82%30.09 "HgN/A
8:00 AM50 °FCool.7 mph94%30.09 "HgN/A
Weather by CustomWeather, © 2016

See weather overviewHow to use our weather pages